sat.trackr.live / text

‹ back to catalog

STARLINK-30344

NORAD 57737 · 2023-131F

PAYLOAD ACTIVE UNKNOWN

§ Identity

Operator
Country
US
Launch date
2023-09-01
Launch site
AFETR
Launch vehicle
Mass (kg)
RCS (m²)

Purposes: comms

External: N2YO · Heavens-Above · Gunter

§ Orbital elements

Epoch: 2026-09-20T03:51:02.227680Z

Period
94.27 min
Inclination
43.0007°
Eccentricity
0.0001099
Mean motion
15.27575115 rev/d
Perigee alt
482.3 km
Apogee alt
483.8 km
Semi-major
6,861.2 km
B*
4.0393e-5
RAAN
183.5553°
Arg perigee
265.5067°
Mean anomaly
94.5659°
Rev number
16,931

§ Raw data

STARLINK-303441 57737U 23131F   26263.16044245  .00000850  00000+0  40393-4 0  99992 57737  43.0007 183.5553 0001099 265.5067  94.5659 15.27575115169312

JSON: /api/v1/satellites/57737 · /tle

For live sub-satellite position, see the globe view (requires WebGL).

§ Visibility from observer

Set your observer location to see the next 7 days of passes ≥ 10°. The values pass through the URL so the page stays shareable.

No JS? Fill the form by hand. The geolocation button needs JavaScript.